TimeIST,TemperatureF,Dew PointF,Humidity,Sea Level PressureIn,VisibilityMPH,Wind Direction,Wind SpeedMPH,Gust SpeedMPH,PrecipitationIn,Events,Conditions,WindDirDegrees,DateUTC
12:10 AM,77.0,69.8,78,29.86,2.2,Calm,Calm,-,N/A,,Haze,0,2012-10-13 18:40:00
12:40 AM,77.0,69.8,78,29.86,2.2,Calm,Calm,-,N/A,,Haze,0,2012-10-13 19:10:00
1:10 AM,75.2,71.6,89,29.86,2.2,Calm,Calm,-,N/A,,Haze,0,2012-10-13 19:40:00
1:40 AM,75.2,71.6,89,29.83,2.2,Calm,Calm,-,N/A,,Haze,0,2012-10-13 20:10:00
2:10 AM,75.2,71.6,89,29.83,2.2,Calm,Calm,-,N/A,,Haze,0,2012-10-13 20:40:00
2:30 AM,73,68,81,29.86,2,Calm,Calm,,,,,,2012-10-13 21:00:00
2:40 AM,73.4,71.6,94,29.83,2.2,Calm,Calm,-,N/A,,Haze,0,2012-10-13 21:10:00
3:40 AM,73.4,69.8,88,29.83,2.2,Calm,Calm,-,N/A,,Haze,0,2012-10-13 22:10:00
4:10 AM,73.4,68.0,83,29.83,2.2,Calm,Calm,-,N/A,,Haze,0,2012-10-13 22:40:00
5:10 AM,71.6,66.2,83,29.86,2.2,Calm,Calm,-,N/A,,Haze,0,2012-10-13 23:40:00
5:30 AM,72,66,75,29.87,2,Calm,Calm,,,,,,2012-10-14 00:00:00
5:40 AM,71.6,66.2,83,29.86,2.2,Calm,Calm,-,N/A,,Haze,0,2012-10-14 00:10:00
6:10 AM,71.6,66.2,83,29.86,2.2,Calm,Calm,-,N/A,,Haze,0,2012-10-14 00:40:00
7:10 AM,71.6,68.0,88,29.89,1.2,Calm,Calm,-,N/A,,Mist,0,2012-10-14 01:40:00
8:10 AM,78.8,66.2,65,29.92,0.9,Calm,Calm,-,N/A,,Mist,0,2012-10-14 02:40:00
8:30 AM,81,65,48,29.92,1,Calm,Calm,,,,Haze,,2012-10-14 03:00:00
10:40 AM,89.6,71.6,55,29.92,1.9,NNW,3.5,-,N/A,,Smoke,330,2012-10-14 05:10:00
11:10 AM,91.4,69.8,49,29.92,2.5,NNW,3.5,-,N/A,,Smoke,330,2012-10-14 05:40:00
11:30 AM,91,78,58,29.93,2,North,3.5,,,,Haze,0,2012-10-14 06:00:00
11:40 AM,93.2,68.0,44,29.89,2.5,North,3.5,-,N/A,,Smoke,10,2012-10-14 06:10:00
12:10 PM,95.0,68.0,41,29.89,2.5,NNW,3.5,-,N/A,,Smoke,330,2012-10-14 06:40:00
1:10 PM,98.6,68.0,37,29.86,3.1,Calm,Calm,-,N/A,,Smoke,0,2012-10-14 07:40:00
1:40 PM,98.6,68.0,37,29.86,3.1,NNW,3.5,-,N/A,,Smoke,340,2012-10-14 08:10:00
2:30 PM,96,62,23,29.85,2,NW,3.5,,,,,320,2012-10-14 09:00:00
2:40 PM,98.6,66.2,35,29.80,3.7,NNE,3.5,-,N/A,,Unknown,20,2012-10-14 09:10:00
3:10 PM,98.6,64.4,32,29.80,3.7,NW,3.5,-,N/A,,Unknown,320,2012-10-14 09:40:00
3:40 PM,100.4,62.6,29,29.80,3.7,WNW,3.5,-,N/A,,Unknown,300,2012-10-14 10:10:00
4:10 PM,98.6,66.2,35,29.80,3.7,Variable,3.5,-,N/A,,Unknown,0,2012-10-14 10:40:00
4:40 PM,98.6,66.2,35,29.80,3.7,Variable,3.5,-,N/A,,Unknown,0,2012-10-14 11:10:00
5:10 PM,96.8,64.4,34,29.80,3.7,Variable,3.5,-,N/A,,Partly Cloudy,0,2012-10-14 11:40:00
5:30 PM,95,65,27,29.83,2,Calm,Calm,,,,Partly Cloudy,,2012-10-14 12:00:00
5:40 PM,95.0,64.4,36,29.80,3.7,East,3.5,-,N/A,,Partly Cloudy,90,2012-10-14 12:10:00
6:10 PM,95.0,64.4,36,29.80,3.7,Calm,Calm,-,N/A,,Unknown,0,2012-10-14 12:40:00
7:10 PM,87.8,64.4,46,29.83,2.5,Calm,Calm,-,N/A,,Smoke,0,2012-10-14 13:40:00
7:40 PM,87.8,62.6,43,29.83,2.5,Calm,Calm,-,N/A,,Smoke,0,2012-10-14 14:10:00
8:10 PM,86.0,66.2,51,29.86,2.5,Calm,Calm,-,N/A,,Smoke,0,2012-10-14 14:40:00
8:30 PM,80,68,60,29.88,2,Calm,Calm,,,,Haze,,2012-10-14 15:00:00
8:40 PM,84.2,68.0,58,29.86,2.5,Calm,Calm,-,N/A,,Smoke,0,2012-10-14 15:10:00
9:10 PM,82.4,66.2,58,29.86,2.2,Calm,Calm,-,N/A,,Smoke,0,2012-10-14 15:40:00
9:40 PM,82.4,68.0,62,29.89,2.2,Calm,Calm,-,N/A,,Smoke,0,2012-10-14 16:10:00
10:10 PM,82.4,69.8,66,29.89,2.2,Calm,Calm,-,N/A,,Smoke,0,2012-10-14 16:40:00
10:40 PM,78.8,69.8,74,29.89,2.2,Calm,Calm,-,N/A,,Haze,0,2012-10-14 17:10:00
11:10 PM,78.8,75.2,89,29.89,2.2,Calm,Calm,-,N/A,,Haze,0,2012-10-14 17:40:00
11:30 PM,76,69,74,29.91,1,Calm,Calm,,,,Haze,,2012-10-14 18:00:00
11:40 PM,78.8,73.4,83,29.89,2.2,Calm,Calm,-,N/A,,Haze,0,2012-10-14 18:10:00